Flag for United Kingdom Weather past 2 weeks in Market Harborough, England, United Kingdom

Now
54 °F

Cool.


Feels Like: 52 °F
Forecast: 48 / 67 °F
Wind: 7 mph from West

Location: Church Lawford

Current Time: Aug 1, 2015 at 12:55:16 AM

Latest Report: Aug 1, 2015 at 12:00 AM


Visibility: 31 mi

Pressure: 29.98 "Hg

Humidity: 71%

Dew point: 44 °F

Location of Market HarboroughLocation

Historic Weather in Market Harborough — Graph

°F

Market Harborough temperature yesterday

Maximum temperature yesterday: 69 °F (at 5:00 PM)
Minimum temperature yesterday: 38 °F (at 5:00 AM)
Average temperature yesterday: 56 °F

Past Weeks' High & Low Weather Summary

 TemperatureHumidityPressure
High72 °F (Jul 20, 4:00 PM)99% (Jul 31, 7:00 AM)30.17 "Hg (Jul 31, 7:00 AM)
Low38 °F (Jul 31, 5:00 AM)32% (Jul 31, 5:00 PM)29.35 "Hg (Jul 26, 8:00 PM)
Average58 °F75%29.85 "Hg
* Reported Jul 16 11:00 PM — Jul 31 11:00 PM, Market Harborough, Weather by CustomWeather, © 2015

Note: Actual official high and low records may vary slightly from our data, if they occured in-between our weather recording intervals... More about our weather records

Advertising

Market Harborough weather history for previous 24 hours

 ConditionsComfort  
Time TempWeatherWind HumidityBarometerVisibility
11:00 PM
Fri, Jul 31
54 °FCool.2 mph67%29.98 "Hg22 mi
9:00 PM60 °FRefreshingly cool.2 mph48%29.97 "Hg12 mi
8:00 PM65 °FMild.8 mph40%29.96 "Hg28 mi
7:00 PM67 °FMild.7 mph40%29.96 "Hg25 mi
6:00 PM68 °FMild.6 mph39%29.97 "Hg13 mi
5:00 PM69 °FMild.8 mph32%29.99 "Hg9 mi
4:00 PM67 °FSmoke.5 mph39%30.01 "Hg4 mi
3:00 PM67 °FMild.6 mph39%30.02 "Hg17 mi
2:00 PM66 °FMild.6 mph40%30.05 "Hg31 mi
1:00 PM66 °FMild.6 mph46%30.06 "Hg18 mi
12:00 PM62 °FRefreshingly cool.7 mph49%30.08 "Hg25 mi
11:00 AM62 °FRefreshingly cool.5 mph50%30.10 "Hg28 mi
10:00 AM59 °FRefreshingly cool.1 mph55%30.11 "Hg19 mi
9:00 AM57 °FCool.2 mph71%30.12 "Hg16 mi
8:00 AM48 °FCool.1 mph97%30.14 "Hg11 mi
7:00 AM44 °FQuite cool.1 mph99%30.14 "Hg9 mi
6:00 AM39 °FChilly.No wind97%30.14 "Hg4 mi
5:00 AM38 °FChilly.1 mph97%30.14 "Hg11 mi
3:00 AM40 °FFog.1 mph97%30.16 "Hg7 mi
2:00 AM42 °FQuite cool.1 mph96%30.17 "Hg6 mi
1:00 AM42 °FQuite cool.2 mph90%30.16 "Hg11 mi
12:00 AM46 °FCool.3 mph83%30.16 "Hg28 mi
Weather by CustomWeather, © 2015

See weather overviewHow to use our weather pages